Location: Delia
(51.6321°N, 112.3740°W)
Time: 19:38:15
(UTC+00:00)

Envisat - Pass Details

Date: 03 December 2021
Orbit: 764 x 766 km, 98.2° (Epoch: 26 January)

Event Time Altitude Azimuth Distance (km) Brightness Sun altitude
Rises 14:27:12 0° 4° (N) 3,248 6.0 -7.4°
Reaches altitude 10° 14:30:13 10° 346° (NNW) 2,317 5.1 -7.0°
Maximum altitude 14:33:29 17° 306° (NW) 1,850 4.4 -6.5°
Drops below altitude 10° 14:36:44 10° 266° (W) 2,307 5.0 -6.1°
Sets 14:39:44 0° 247° (WSW) 3,229 5.9 -5.7°
